Location: Posen
(38.2584°N, 89.3356°W)
Time: 02:22:03
(UTC+00:00)

Daily predictions for brighter satellites

Satellite Brightness Start Highest point End
(mag) Time Altitude Azimuth Time Altitude Azimuth Time Altitude Azimuth
NOSS 3-4 (A) 4.3 01:41:45 10° NW 01:48:57 71° WSW 01:57:09 10° SSE
NOSS 3-4 (C) 4.3 01:41:48 10° NW 01:48:59 72° WSW 01:57:08 10° SSE
Cosmos 1666 Rocket 3.6 01:50:11 10° N 01:54:32 88° WSW 01:58:53 10° S
Cosmos 1766 3.5 01:51:14 10° N 01:54:53 48° E 01:58:30 10° SSE
COSMOS 2406 3.2 01:49:23 10° SSW 01:55:07 80° ESE 02:00:54 10° NNE
Cosmos 1092 Rocket 4.1 01:50:06 10° S 01:56:26 85° E 02:02:49 10° N
Cosmos 1674 2.7 01:54:07 10° SSE 01:57:27 46° E 02:00:47 10° NNE
Cosmos 1980 Rocket 2.3 01:51:45 10° NNW 01:57:27 73° ENE 02:03:05 10° SSE
Cosmos 2322 Rocket 4.3 01:56:02 10° NNE 01:58:02 12° NE 02:00:02 10° ENE
CSL-04 Debris 4.2 01:52:48 10° SSE 01:58:13 88° ENE 02:03:39 10° NNW
Cosmos 1763 Rocket 4.0 01:54:57 10° N 01:59:59 45° ENE 02:04:54 10° SE
ATLAS CENTAUR R/B 2.9 02:02:04 10° SE 02:03:09 11° ESE 02:04:13 10° E
USA 234 3.3 02:00:03 10° NE 02:06:29 59° SE 02:12:54 10° SSW
Cosmos 1933 Rocket 4.4 02:07:26 10° NNE 02:11:29 34° ENE 02:15:12 12° SE
IRIDIUM 114 4.4 02:08:06 10° N 02:13:18 65° E 02:18:28 10° SSE
Resurs 01 Rocket 2.3 02:11:11 10° S 02:15:31 56° W 02:19:51 10° NNW
Cosmos 1908 4.3 02:13:58 10° NNE 02:17:01 25° ENE 02:19:19 14° SE
Terra 3.3 02:16:12 11° ESE 02:19:30 22° ENE 02:23:05 10° NNE
IRIDIUM 103 4.3 02:17:13 10° N 02:22:28 80° E 02:27:40 10° S
Cosmos 1470 2.8 02:23:03 10° N 02:26:40 53° E 02:29:33 15° SSE
ARGOS Delta rocket 4.1 02:23:06 13° SE 02:26:48 45° ENE 02:31:00 10° N
CZ-4 R/B 4.0 02:27:40 10° SW 02:30:13 16° W 02:32:47 10° NW
Ariane Rocket 4.3 02:27:25 13° ESE 02:30:44 25° ENE 02:34:49 10° NNE
Cosmos 468 Rocket 4.2 02:25:56 10° N 02:31:05 56° ENE 02:35:01 17° SE
CZ-4B R/B 4.5 02:26:24 10° SSW 02:31:15 37° W 02:36:12 10° NNW
KORONAS-FOTON 4.0 02:30:14 10° SSW 02:33:55 68° W 02:37:38 10° N
Cosmos 1842 3.9 02:36:04 10° SSW 02:39:37 50° W 02:43:11 10° N
SJ 16-02 3.2 02:40:03 13° E 02:40:06 13° E 02:42:02 10° ENE
ATLAS 2AS CENTAUR R/B 4.2 02:39:10 10° NNW 02:44:33 24° NE 02:49:49 10° E
Cosmos 2360 Rocket 3.8 02:44:30 10° N 02:48:52 22° NE 02:52:15 14° E
IRS-1C Rocket 4.1 02:45:32 18° SSE 02:49:31 73° ENE 02:54:45 10° N
In-Cosmos 22 4.1 02:44:29 10° S 02:50:08 75° E 02:55:40 10° NNE
Cosmos 540 Rocket 3.4 02:45:22 10° NNW 02:50:32 85° WSW 02:54:14 19° SSE
Meteor 1-23 Rocket 4.5 02:47:06 16° SSE 02:51:23 49° E 02:56:52 10° NNE
Cosmos 1417 Rocket 4.5 02:47:34 10° N 02:53:43 66° E 02:58:05 20° SSE
RESURS DK-1 3.8 02:50:28 10° N 02:53:52 25° ENE 02:55:35 19° E
SPOT 3 Rocket 4.3 02:51:36 21° ESE 02:54:25 38° ENE 02:59:09 10° N
Meteor 1-15 Rocket 4.4 02:52:24 10° N 02:57:52 55° ENE 03:01:06 24° SSE
Cosmos 968 Rocket 4.1 02:57:17 24° SSE 02:59:33 35° E 03:04:13 10° NE
SL-16 R/B 2.5 02:54:29 10° NNW 03:00:04 54° ENE 03:03:14 25° SE
Cosmos 2333 Rocket 3.6 02:57:16 10° N 03:02:02 26° ENE 03:05:07 17° E
MOS 1 Rocket 4.0 02:59:27 24° SE 03:02:27 51° ENE 03:07:36 10° N
Cosmos 1741 Rocket 4.1 02:58:34 16° S 03:02:37 55° ESE 03:07:47 10° NNE
Okean-O 3.6 02:58:43 11° S 03:02:39 42° W 03:06:51 10° NNW
Cosmos 1733 Rocket 4.3 03:00:54 10° NNE 03:04:38 26° ENE 03:05:48 23° ESE
Cosmos 1707 4.3 03:01:25 10° SW 03:04:39 31° WNW 03:07:54 10° NNW
SeaSat 1 2.5 03:02:21 26° SE 03:05:02 64° ENE 03:09:55 10° NNW
Cosmos 1758 4.0 03:05:50 10° N 03:09:28 35° E 03:10:17 31° ESE
Atlas Centaur 2 3.3 03:01:45 10° WSW 03:09:29 48° S 03:14:18 24° SE
USA 245 2.9 03:10:21 41° SSE 03:11:27 86° E 03:15:31 10° NNW
SPOT 5 3.5 03:14:17 18° SSW 03:17:13 43° W 03:21:22 10° NNW
IRS-1A Rocket 4.5 03:14:38 21° S 03:18:24 66° WSW 03:23:53 10° NNW
SL-08 ROCKET BODY 4.5 03:14:48 13° S 03:20:19 82° W 03:26:26 10° N
Cosmos 2228 Rocket 3.1 03:18:36 33° SSE 03:20:31 68° E 03:25:04 10° NNE
Tiangong -1.4 03:20:01 10° W 03:22:45 41° SW 03:22:45 41° SW
Okean O Rocket 4.3 03:21:03 10° WSW 03:23:06 13° W 03:25:10 10° WNW
Spot 1 4.3 03:22:21 10° NNE 03:26:54 58° ESE 03:28:28 38° SSE
Cosmos 1356 Rocket 3.3 03:25:56 40° S 03:27:21 78° E 03:31:34 10° NNE
Cosmos 1869 Rocket 4.1 03:23:41 10° NNW 03:28:03 55° W 03:30:17 27° SSW
Meteor 1-12 Rocket 4.3 03:23:59 10° N 03:30:02 81° E 03:32:55 33° SSE
S3M 4.1 03:24:28 10° N 03:30:50 76° W 03:34:41 25° S
Cosmos 1400 Rocket 3.8 03:28:43 17° SW 03:31:27 43° WNW 03:35:09 10° N
ERS-1 Rocket 3.5 03:30:43 25° SSW 03:33:28 55° W 03:38:24 10° NNW
Cosmos 1655 Rocket 4.1 03:34:27 20° SSW 03:39:04 79° W 03:45:31 10° N
Cosmos 841 Rocket 3.6 03:34:45 10° NNW 03:40:00 72° WSW 03:41:59 38° S
ATLAS CENTAUR R/B 2.2 03:37:03 10° SW 03:40:20 40° NW 03:43:43 10° NNE
Cosmos 2322 Rocket 2.2 03:37:19 10° NNW 03:43:01 77° ENE 03:44:58 43° SE
Cosmos 1300 2.3 03:39:34 10° N 03:43:07 86° W 03:43:15 82° SSW
Spot 2 Rocket 3.8 03:42:27 32° SSW 03:44:37 59° W 03:49:39 10° NNW
Aureole 3 3.1 03:48:02 73° SE 03:48:17 78° E 03:52:45 10° N
Cosmos 1315 Rocket 3.4 03:49:43 42° ENE 03:49:43 42° ENE 03:53:03 10° NNE
Meteor 2-10 Rocket 3.9 03:48:57 10° NNW 03:54:24 60° W 03:56:28 35° SSW
Cosmos 1953 3.6 03:51:47 10° NNE 03:54:38 28° ENE 03:54:38 28° ENE
Cosmos 1703 Rocket 4.5 03:55:52 34° E 03:55:52 34° E 03:59:31 10° NNE
Cosmos 1862 Rocket 3.8 03:55:14 44° SW 03:56:28 65° W 04:00:51 10° N
Terra 3.0 03:54:54 25° SW 03:56:50 35° W 04:01:10 10° NNW
Meteor 1-21 4.5 03:54:03 28° SSW 03:57:13 70° W 04:03:01 10° N
Cosmos 1244 Rocket 4.5 03:56:24 43° SSE 03:58:27 68° E 04:04:42 10° NNE
Landsat 5 4.0 04:00:56 10° N 04:04:53 53° WNW 04:05:57 41° WSW
COSMOS 2428 4.3 04:02:46 10° N 04:07:13 23° NE 04:09:13 19° E
Cosmos 2219 Rocket 2.7 04:03:08 10° NNW 04:08:38 49° ENE 04:09:56 41° ESE
Okean 3 3.8 04:08:31 50° WSW 04:09:08 56° W 04:13:14 10° N
Ariane Rocket 4.1 04:07:33 27° SW 04:09:26 36° W 04:14:07 10° NNW
SL-27 R/B 4.5 04:09:25 17° WNW 04:09:37 18° WNW 04:11:36 10° NNW
CZ-2C R/B 4.0 04:06:09 10° NNE 04:10:01 49° ENE 04:10:01 49° ENE
BlueWalker 3 3.9 04:15:31 20° NE 04:15:31 20° NE 04:16:44 10° NE
SJ 16-02 2.1 04:16:45 36° WSW 04:17:56 46° WNW 04:22:07 10° N
Meteor 1-4 Rocket 4.2 04:21:23 27° NW 04:21:23 27° NW 04:23:12 10° N
H-2A R/B 4.1 04:22:54 25° ENE 04:22:54 25° ENE 04:26:13 10° NNE
COSMOS 2455 3.5 04:24:43 38° E 04:24:43 38° E 04:29:43 10° NE
CZ-4C R/B 3.4 04:28:06 21° ENE 04:28:06 21° ENE 04:30:16 10° NE
Cosmos 1346 Rocket 4.2 04:22:53 10° NNW 04:26:15 29° W 04:26:15 29° W
SL-08 R/B 4.3 04:25:30 54° S 04:27:02 89° W 04:33:10 10° N
ARIANE 5 R/B 2.9 04:31:12 56° NE 04:31:12 56° NE 04:35:05 10° N
DNEPR-1 R/B 4.2 04:24:37 10° NNW 04:30:57 65° NE 04:31:50 56° E
RESURS DK-1 4.1 04:28:12 10° NW 04:31:10 23° W 04:31:10 23° W
Cosmos 2360 Rocket 2.5 04:27:39 10° NNW 04:33:08 52° WSW 04:34:00 47° SW
ATLAS 2AS CENTAUR R/B 2.6 04:29:23 10° NW 04:36:07 74° WSW 04:37:28 57° S
Cosmos 1570 Rocket 4.3 04:35:28 10° N 04:40:42 53° ENE 04:41:05 52° E
SL-16 R/B 4.0 04:39:48 10° WNW 04:43:38 19° W 04:45:05 17° WSW
Cosmos 1455 3.5 04:41:53 10° NNW 04:44:05 35° NNW 04:44:05 35° NNW
SL-24 R/B - RUBIN 2 4.3 04:39:28 10° NNW 04:46:02 77° ENE 04:47:01 63° ESE
Cosmos 2333 Rocket 2.8 04:41:01 10° NW 04:46:27 44° WSW 04:47:07 42° SW
USA 281 3.2 04:45:41 56° SE 04:47:11 79° ENE 04:53:46 10° NNW
Okean 1-7 4.2 04:47:58 33° W 04:48:19 34° WNW 04:52:16 10° NNW
CZ-2C R/B 3.2 04:50:23 68° SE 04:50:49 73° E 05:04:50 10° N
GP-B 3.5 04:49:28 10° N 04:53:24 60° NW 04:53:24 60° NW
Cosmos 1908 Rocket 4.2 04:51:59 10° NNW 04:55:38 49° WNW 04:55:38 49° WNW
Atlas Centaur 2 4.0 04:51:08 10° W 04:56:31 29° SW 04:56:31 29° SW
Cosmos 1782 Rocket 4.1 04:54:42 10° N 04:58:10 55° N 04:58:10 55° N
Cosmos 2237 Rocket 3.6 05:03:06 10° N 05:07:54 27° ENE 05:09:20 24° E
Meteor 1-24 Rocket 4.0 05:08:46 54° E 05:08:46 54° E 05:14:12 10° NNE
Cosmos 2227 Rocket 3.6 05:10:41 24° E 05:10:41 24° E 05:14:10 10° NE
Cosmos 1745 Rocket 4.1 05:08:42 56° SW 05:09:53 68° W 05:16:14 10° N
Cosmos 2322 3.5 05:04:41 10° NNW 05:10:24 90° E 05:10:29 87° SSE
Cosmos 839 Rocket 4.2 05:05:28 10° NW 05:11:48 54° WSW 05:12:09 53° SW
Cosmos 2208 Rocket 4.0 05:09:12 10° NNW 05:14:06 76° NNE 05:14:06 76° NNE
H-2A R/B 4.1 05:12:38 10° NE 05:14:25 19° ENE 05:14:25 19° ENE
Cosmos 1300 Rocket 4.3 05:13:10 10° N 05:16:26 51° NNW 05:16:26 51° NNW
Cosmos 1503 Rocket 4.2 05:20:32 62° ENE 05:20:32 62° ENE 05:25:12 10° NNE
ALOS 2 3.3 05:23:09 52° NNE 05:23:09 52° NNE 05:26:37 10° N
Nadezhda 1 Rocket 4.2 05:17:38 10° NNW 05:23:46 58° W 05:24:27 55° WSW
Cosmos 2322 Rocket 4.4 05:23:54 10° WNW 05:26:16 13° W 05:26:46 13° WSW
Cosmos 2297 Rocket 2.1 05:29:40 77° ENE 05:29:40 77° ENE 05:35:03 10° NNE
Cosmos 2181 Rocket 4.3 05:24:50 10° N 05:30:49 49° E 05:31:22 48° E
CENTAUR R/B 3.3 05:33:38 33° E 05:33:38 33° E 05:38:10 10° NE
CZ-3 Stage 3 3.9 05:09:29 10° W 05:35:00 47° SSW 05:35:53 46° SSW
Cosmos 2074 Rocket 4.5 05:38:32 45° E 05:38:48 45° E 05:44:38 10° NNE
Meteor 2-5 Rocket 3.7 05:41:48 76° WSW 05:42:01 78° W 05:47:55 10° N
Cosmos 371 Rocket 4.2 05:50:32 42° WNW 05:50:32 42° WNW 05:54:56 10° N
COSMOS 2428 3.2 05:46:14 10° NNW 05:51:11 48° W 05:51:11 48° W
Cosmos 2219 Rocket 3.9 05:47:58 10° NW 05:51:37 21° W 05:51:37 21° W
Cosmos 405 Rocket 4.5 05:53:12 10° N 05:55:13 30° N 05:55:13 30° N
H-2A R/B 4.5 05:58:52 22° WNW 05:58:52 22° WNW 06:01:05 10° NW
Cosmos 1354 Rocket 4.2 06:01:44 67° NW 06:01:44 67° NW 06:06:47 10° NNE
Cosmos 2263 Rocket 3.5 06:03:48 26° E 06:03:48 26° E 06:07:44 10° NE
COSMOS 2455 4.2 06:07:48 25° W 06:10:07 33° NW 06:15:32 10° N
NOSS 0 Rocket 4.1 06:04:08 10° NNW 06:10:02 57° W 06:10:02 57° W
SL-12 R/B(2) 4.1 06:09:01 59° S 06:10:40 75° ESE 06:19:51 10° NE
Cosmos 1295 Rocket 4.3 06:12:48 74° ESE 06:13:04 76° E 06:19:10 10° N
CZ-4C R/B 3.4 06:13:09 25° WNW 06:14:17 28° NW 06:18:54 10° NNE
NOSS 3-2 (A) 3.7 06:18:59 45° E 06:18:59 45° E 06:23:33 10° NE
Nadezhda 3 Rocket 4.3 06:13:13 10° N 06:19:22 55° E 06:20:15 51° ESE
Cosmos 2184 Rocket 3.9 06:22:41 75° SW 06:23:12 82° W 06:29:37 10° N
Meteor 2-11 Rocket 4.3 06:27:04 73° SE 06:27:25 76° E 06:33:30 10° N
Okean 1 Rocket 3.8 06:24:42 10° N 06:27:58 50° N 06:27:58 50° N
Nimbus 7 Rocket 4.4 06:25:54 10° NNE 06:31:58 67° ESE 06:32:23 65° SE
Cosmos 292 Rocket 4.3 06:38:10 52° ENE 06:38:10 52° ENE 06:42:07 10° NNE
Cosmos 967 Rocket 4.3 06:39:22 73° S 06:39:57 81° ESE 06:46:27 10° NNE
Cosmos 2154 Rocket 3.9 06:39:30 69° WSW 06:40:04 74° W 06:46:21 10° N
Cosmos 2327 Rocket 4.3 06:44:23 67° SE 06:45:00 73° E 06:51:05 10° N
SL-16 R/B 2.9 06:39:29 10° NNW 06:45:01 50° ENE 06:46:35 39° ESE
SL-4 R/B 3.6 06:42:53 10° NW 06:45:06 31° NW 06:45:06 31° NW
Cosmos 990 Rocket 4.2 06:48:20 59° WNW 06:48:20 59° WNW 06:53:16 10° N
Cosmos 1975 Rocket 3.8 06:49:56 49° NE 06:49:56 49° NE 06:53:28 10° NNE
Cosmos 2082 3.7 06:51:06 68° ESE 06:51:12 69° ESE 06:56:47 10° NNE
H-2A R/B 3.8 06:48:18 10° NNW 06:51:12 23° WNW 06:51:12 23° WNW
Cosmos 2237 Rocket 3.0 06:46:47 10° NW 06:51:08 37° W 06:51:08 37° W
Cosmos 2227 Rocket 3.0 06:52:28 38° W 06:53:19 40° WNW 06:58:38 10° N
IDEFIX/ARIANE 42P 3.8 06:52:19 10° NE 06:56:50 29° E 06:57:28 28° ESE
SL-8 Rocket 4.3 06:57:10 47° SE 06:58:21 54° E 07:04:21 10° NNE
Meteor 1-11 4.3 07:04:41 60° SE 07:05:26 66° E 07:11:12 10° NNE
Cosmos 1455 Rocket 3.4 07:01:52 10° N 07:05:42 65° N 07:05:42 65° N
CZ-2D R/B 3.6 07:02:09 10° NE 07:06:29 25° E 07:07:38 23° ESE
Cosmos 962 Rocket 4.4 07:06:13 64° S 07:07:19 88° E 07:13:42 10° N
COBE Rocket 4.4 07:02:24 10° NNE 07:07:26 51° E 07:07:50 50° ESE
Cosmos 1538 Rocket 3.9 07:03:07 10° NNW 07:08:16 81° W 07:08:16 81° W
Meteor 1-21 Rocket 4.3 07:07:55 59° WSW 07:08:24 61° WNW 07:14:04 10° N
Celestis-02/Orion 38 4.5 07:11:02 77° SW 07:11:12 78° WSW 07:16:36 10° NNW
Cosmos 2297 Rocket 4.4 07:11:26 11° W 07:14:05 15° NW 07:17:19 10° NNW
Cosmos 2219 3.7 07:15:09 45° W 07:15:57 48° WNW 07:21:23 10° N
Cosmos 1025 Rocket 4.4 07:17:45 29° WNW 07:17:45 29° WNW 07:20:55 10° NNW
Cosmos 1606 3.8 07:17:08 10° N 07:19:53 38° NE 07:19:53 38° NE
Cosmos 372 Rocket 3.8 07:22:07 74° WSW 07:22:28 78° WNW 07:27:42 10° NNE
CENTAUR R/B 3.5 07:20:44 27° W 07:22:59 36° NW 07:29:13 10° NNE
Aureole 1 Rocket 4.1 07:23:52 30° NW 07:23:52 30° NW 07:26:46 10° N
NPP 4.1 07:18:29 10° NNE 07:23:44 51° E 07:24:46 45° SE
Cosmos 2341 Rocket 3.9 07:27:49 58° SSW 07:29:06 78° W 07:35:21 10° N
USA 238 DEB 4.1 07:28:50 38° SE 07:30:10 43° ESE 07:36:13 10° NE
USA 238 4.1 07:28:52 37° SE 07:30:13 42° ESE 07:36:16 10° NE
Helios 1A Rocket 3.7 07:33:25 39° NW 07:33:25 39° NW 07:36:00 10° NNW
ADEOS II 3.5 07:27:57 10° NE 07:32:27 29° E 07:34:19 23° SE
Cosmos 1461 3.3 07:36:27 53° NNW 07:36:27 53° NNW 07:39:53 10° NNE
Cosmos 923 Rocket 4.0 07:31:08 10° NNW 07:36:25 76° ENE 07:37:48 49° SE
Cosmos 1937 Rocket 3.5 07:38:33 58° WSW 07:39:14 64° WNW 07:44:28 10° NNE
Cosmos 864 Rocket 4.4 07:38:09 52° SSW 07:39:49 81° W 07:46:11 10° N
MOZ.5/SAFIR/RUBIN 5/SL-8 3.6 07:39:56 77° S 07:40:15 85° WSW 07:44:55 10° NNW
Meteor 2-1 Rocket 4.2 07:35:33 10° NNW 07:41:25 74° W 07:42:41 55° SSW
Cosmos 1898 Rocket 4.1 07:42:11 39° W 07:42:54 42° WNW 07:47:48 10° N
Resurs 1-4 Rocket 2.3 07:40:43 10° NNE 07:45:58 64° ESE 07:47:23 46° SSE
Cosmos 2263 Rocket 3.0 07:45:28 33° W 07:46:48 38° WNW 07:51:59 10° N
Cosmos 1821 Rocket 3.9 08:00:01 40° S 08:02:25 87° E 08:08:34 10° N
Cosmos 2218 Rocket 4.3 08:03:34 39° SW 08:05:26 51° W 08:11:28 10° N
Meteor 1-27 4.4 08:00:26 10° N 08:06:16 73° E 08:09:44 25° SSE
Cosmos 1844 Rocket 2.9 08:04:20 37° S 08:06:22 60° ESE 08:11:51 10° NNE
Cosmos 1869 4.1 08:03:31 10° NNW 08:06:12 34° WNW 08:06:12 34° WNW
Delta 2 Rocket 3.6 08:07:47 49° SE 08:07:47 49° SE 08:11:11 10° ESE
ALOS 3.5 08:06:50 10° NNE 08:11:04 35° E 08:13:24 22° SSE
Cosmos 1437 Rocket 2.5 08:12:41 72° SSW 08:13:04 89° WNW 08:16:53 10° N
NOSS 3-2 (C) 3.8 08:12:44 31° W 08:14:44 45° NW 08:20:28 10° NNE
Cosmos 1544 Rocket 4.1 08:13:45 10° NNW 08:17:52 39° W 08:18:04 39° W
Cosmos 1680 Rocket 3.5 08:13:27 10° NNW 08:18:34 60° WSW 08:20:14 40° SSW
USA 267 3.3 08:14:13 10° NE 08:20:44 68° SE 08:24:01 31° SSW
Cosmos 2112 Rocket 3.9 08:15:42 10° NNW 08:20:51 68° WSW 08:23:05 34° S
Cosmos 1818 3.5 08:15:44 10° NW 08:21:11 68° WSW 08:24:48 21° SSE
Cosmos 2228 3.2 08:17:20 10° NNW 08:21:30 49° W 08:21:59 46° WSW
MSX 4.1 08:17:43 10° N 08:23:17 53° WNW 08:25:34 33° SW
COSMOS 2441 4.4 08:22:43 10° N 08:27:30 67° WNW 08:29:13 38° SW
SL-16 R/B 3.6 08:24:33 10° NW 08:28:24 21° W 08:28:24 21° W
Cosmos 1603 3.9 08:28:13 10° NNW 08:33:59 76° ENE 08:39:41 10° SSE
SL-16 R/B 2.8 08:29:20 10° SSE 08:35:33 73° ENE 08:41:47 10° N
IDEFIX/ARIANE 42P 3.6 08:31:41 10° N 08:36:17 32° WNW 08:38:13 25° WSW
CZ-2C R/B 2.9 08:37:16 31° SSW 08:39:15 46° W 08:44:24 10° NNW
SEDSat Delta rocket 3.7 08:41:06 28° S 08:41:06 28° S 08:44:33 10° ESE
Cosmos 1934 Rocket 4.2 08:36:19 18° S 08:41:10 74° E 08:47:31 10° N
Cosmos 2123 Rocket 4.4 08:35:58 10° N 08:42:07 64° E 08:48:15 10° SSE
CZ-2C R/B 3.5 08:37:26 10° N 08:42:33 48° WNW 08:44:53 28° SW
Cosmos 1943 3.3 08:38:18 10° NNW 08:43:45 54° WSW 08:47:43 18° S
CZ-2D R/B 2.9 08:41:40 10° N 08:46:31 37° WNW 08:48:55 24° WSW
FENGYUN 3A 3.9 08:44:43 10° N 08:49:57 55° WNW 08:52:55 25° SW
Cosmos 1606 Rocket 3.5 08:49:05 10° NNW 08:53:29 66° W 08:56:15 22° S
Envisat 3.8 08:48:46 10° NNE 08:53:40 48° E 08:58:28 10° S
Cosmos 921 Rocket 2.8 08:50:08 10° NNW 08:54:21 78° WSW 08:57:55 14° S
Cosmos 1048 Rocket 4.2 08:50:04 10° NNW 08:55:19 77° ENE 09:00:36 10° SSE
ASTEX 1 3.4 08:52:23 22° S 08:55:30 64° W 09:00:20 10° NNW
Cosmos 1125 Rocket 3.5 08:57:57 21° SSW 09:01:32 90° WNW 09:06:51 10° NNE
CZ-2C R/B 3.6 09:00:14 10° NNE 09:04:27 36° E 09:08:40 10° SSE
Cosmos 1867 4.5 09:01:14 19° WSW 09:04:36 37° NW 09:09:41 10° NNE
Orbus 7S? 3.7 09:02:39 10° NW 09:06:00 65° SW 09:12:47 10° SSE
Cosmos 1726 Rocket 3.6 09:04:36 10° NNW 09:08:58 60° W 09:12:35 14° S
Cosmos 1238 Rocket 3.5 09:05:57 10° N 09:09:07 41° E 09:11:57 10° SSE
Iridium 2 3.3 09:09:46 33° W 09:10:01 34° W 09:12:20 10° NNW
Cosmos 494 Rocket 4.1 09:06:09 10° NNW 09:11:15 53° WSW 09:16:19 10° S
ADEOS II 3.0 09:07:23 10° N 09:12:01 32° WNW 09:15:11 17° WSW
Cosmos 1812 2.4 09:08:31 10° N 09:12:06 86° W 09:15:37 10° S
Cosmos 2150 Rocket 4.4 09:09:21 12° S 09:14:08 63° ESE 09:19:22 10° NNE
Cosmos 2058 2.8 09:12:19 17° SSW 09:15:19 75° W 09:19:24 10° N
IRAS Rocket 4.3 09:10:57 10° N 09:16:23 67° WNW 09:20:58 15° SSW
Cosmos 1844 4.5 09:15:24 17° WSW 09:19:21 39° WNW 09:24:46 10° N
SAR-Lupe-4 4.2 09:17:06 10° N 09:20:27 40° WNW 09:22:36 19° SW
USA 81 4.1 09:18:20 10° N 09:23:34 67° W 09:28:45 10° S
YAOGAN 6 3.3 09:20:47 10° NNE 09:23:51 42° E 09:26:52 10° S
Resurs 1-4 Rocket 4.0 09:22:05 10° NNW 09:25:11 16° WNW 09:28:17 10° W
Iridium 4 Rocket 3.2 09:23:44 10° N 09:28:13 72° W 09:33:07 10° S
ATLAS 5 CENTAUR R/B 1.5 09:25:49 14° SSW 09:28:27 49° ESE 09:31:45 10° NE
NOSS 2-2 (E) 3.9 09:25:45 11° S 09:28:56 40° ESE 09:31:55 10° NE
Timation 2 Rocket 4.2 09:23:52 14° SW 09:29:36 65° WNW 09:35:59 10° NNE
UNK 3.9 09:26:31 10° S 09:30:59 51° W 09:35:28 10° NNW
Cosmos 1602 Rocket 4.4 09:34:04 10° S 09:38:22 52° E 09:42:43 10° NNE
Cosmos 724 4.2 09:33:04 10° NNW 09:38:54 81° WSW 09:44:46 10° SSE
Thor Agena Rocket 3.9 09:38:29 10° NNE 09:43:45 69° ESE 09:48:58 10° S
Cosmos 1544 3.2 09:42:30 14° SW 09:44:20 29° W 09:46:42 10° NNW
NOAA 11 4.3 09:40:00 10° N 09:45:24 63° WNW 09:50:46 10° SSW
NOSS 2-3 (D) 3.5 09:42:14 10° SSW 09:45:52 60° ESE 09:49:36 10° NE
Cosmos 1933 4.4 09:43:12 10° N 09:47:01 46° E 09:50:48 10° SSE
Cosmos 2058 Rocket 3.5 09:43:01 10° NNW 09:47:12 43° W 09:51:20 10° SSW
Delta 2 Rocket 3.9 09:43:47 10° W 09:47:33 38° SSW 09:51:41 10° SE
ALOS 3.8 09:44:33 10° NNW 09:48:01 21° WNW 09:51:27 10° WSW
Cosmos 1758 Rocket 3.6 09:46:12 10° S 09:50:39 86° E 09:55:04 10° N
Cosmos 1844 Rocket 4.4 09:46:44 10° W 09:50:39 19° NW 09:54:35 10° N
Cosmos 2298 Rocket 4.3 09:49:36 10° SW 09:54:46 54° WNW 10:00:01 10° N
Cosmos 1666 4.2 09:51:48 10° SSE 09:54:53 32° E 09:57:59 10° NNE
BREEZE-M DEB (TANK) 4.1 09:54:34 10° WSW 09:58:09 78° NNW 10:11:28 10° ENE
Cosmos 1607 4.3 09:54:40 10° NW 10:00:39 44° WSW 10:06:30 10° S
USA 267 4.3 09:57:33 10° NNE 10:03:26 38° NNW 10:09:19 10° W
NOSS 2-2 (C) 3.6 10:00:38 10° SW 10:03:50 38° NW 10:06:46 10° NNE
Cosmos 614 Rocket 4.3 10:01:19 10° NNW 10:06:28 74° ENE 10:11:32 10° SSE
